Location: Neuvy Saint Sepulchre
(46.5953°N, 1.8122°E)
Time: 09:15:45
(UTC+02:00)

ISS - Pass Details

Date: 10 July 2021
Orbit: 419 x 421 km, 51.6° (Epoch: 04 August)

Event Time Altitude Azimuth Distance (km) Brightness Sun altitude
Rises 05:14:01 0° 294° (WNW) 2,371 -0.1 -8.2°
Reaches altitude 10° 05:16:11 10° 301° (WNW) 1,505 -1.1 -8.0°
Maximum altitude 05:19:28 47° 17° (NNE) 562 -2.6 -7.6°
Drops below altitude 10° 05:22:44 10° 93° (E) 1,500 -0.3 -7.1°
Sets 05:24:53 0° 99° (E) 2,362 0.7 -6.9°
